When you browse on this site, cookies collect data to enhance your experience and personalize the content and advertising you see.
Visit our Privacy Policy to learn more. By continuing to use the site, you agree to this use of cookies and data.
  • In Romania
  • List of Countries
  • For 7 days
  • Water Temperature
  • Satellite Maps
  • Weather Map
  • Weather Widgets
  • user-avatar
    Login

    Hourly Weather Puerto Ayacucho

    Today, 18 December, Tuesday

    Time Temperature Precipitation Wind Pressure Humidity
    00:00 +27°C° 0.1 mm 1 mps 753 mmHg 76%
    01:00 +27°C° 0.1 mm 1 mps 753 mmHg 76%
    02:00 +26°C° 0 mm 1 mps 753 mmHg 76%
    03:00 +26°C° 0 mm 1 mps 753 mmHg 76%
    04:00 +26°C° 0 mm 1 mps 753 mmHg 75%
    05:00 +26°C° 0 mm 1 mps 753 mmHg 73%
    06:00 +27°C° 0 mm 1 mps 753 mmHg 71%
    07:00 +28°C° 0 mm 1 mps 754 mmHg 69%
    08:00 +29°C° 0 mm 1 mps 754 mmHg 64%
    09:00 +31°C° 0 mm 1 mps 754 mmHg 58%
    10:00 +33°C° 0 mm 1 mps 753 mmHg 53%
    11:00 +35°C° 0 mm 2 mps 753 mmHg 52%
    12:00 +35°C° 0 mm 2 mps 752 mmHg 51%
    13:00 +36°C° 0 mm 2 mps 751 mmHg 50%
    14:00 +34°C° 0.5 mm 1 mps 750 mmHg 54%
    15:00 +34°C° 0.5 mm 1 mps 750 mmHg 57%
    16:00 +33°C° 0.5 mm 1 mps 750 mmHg 61%
    17:00 +32°C° 0.4 mm 1 mps 750 mmHg 67%
    18:00 +30°C° 0.4 mm 1 mps 751 mmHg 72%
    19:00 +29°C° 0.4 mm 2 mps 751 mmHg 77%
    20:00 +28°C° 0.1 mm 2 mps 752 mmHg 78%
    21:00 +28°C° 0.1 mm 1 mps 752 mmHg 79%
    22:00 +27°C° 0.1 mm 1 mps 753 mmHg 80%
    23:00 +27°C° 0 mm 1 mps 753 mmHg 79%

    Tomorrow, 19 December, Wednesday

    Time Temperature Precipitation Wind Pressure Humidity
    00:00 +27°C° 0 mm 1 mps 752 mmHg 78%
    01:00 +27°C° 0 mm 1 mps 752 mmHg 78%
    02:00 +26°C° 0 mm 1 mps 752 mmHg 77%
    03:00 +26°C° 0 mm 1 mps 752 mmHg 77%
    04:00 +26°C° 0 mm 1 mps 752 mmHg 76%
    05:00 +27°C° 0 mm 1 mps 753 mmHg 74%
    06:00 +27°C° 0 mm 1 mps 753 mmHg 73%
    07:00 +28°C° 0 mm 1 mps 753 mmHg 71%
    08:00 +30°C° 0 mm 1 mps 753 mmHg 65%
    09:00 +31°C° 0 mm 1 mps 753 mmHg 60%
    10:00 +33°C° 0 mm 1 mps 753 mmHg 54%
    11:00 +34°C° 0.1 mm 1 mps 752 mmHg 54%
    12:00 +34°C° 0.1 mm 1 mps 751 mmHg 54%
    13:00 +35°C° 0.1 mm 1 mps 750 mmHg 53%
    14:00 +34°C° 0.8 mm 1 mps 750 mmHg 57%
    15:00 +34°C° 0.8 mm 1 mps 749 mmHg 60%
    16:00 +31°C° 0.8 mm 0 mps 749 mmHg 63%
    17:00 +32°C° 0.5 mm 1 mps 750 mmHg 68%
    18:00 +30°C° 0.5 mm 1 mps 750 mmHg 72%
    19:00 +29°C° 0.5 mm 2 mps 751 mmHg 76%
    20:00 +28°C° 0.5 mm 2 mps 751 mmHg 78%
    21:00 +28°C° 0.5 mm 2 mps 752 mmHg 80%
    22:00 +27°C° 0.5 mm 2 mps 752 mmHg 82%
    23:00 +27°C° 0.3 mm 1 mps 752 mmHg 82%

    Day after tomorrow, 20 December, Thursday

    Time Temperature Precipitation Wind Pressure Humidity
    00:00 +27°C° 0.3 mm 1 mps 751 mmHg 82%
    01:00 +27°C° 0.3 mm 1 mps 751 mmHg 82%
    02:00 +27°C° 0 mm 1 mps 751 mmHg 82%
    03:00 +26°C° 0 mm 1 mps 751 mmHg 82%
    04:00 +26°C° 0 mm 1 mps 751 mmHg 82%
    05:00 +27°C° 0 mm 1 mps 751 mmHg 81%
    06:00 +27°C° 0 mm 1 mps 752 mmHg 79%
    07:00 +28°C° 0 mm 1 mps 753 mmHg 77%
    08:00 +30°C° 0 mm 1 mps 753 mmHg 71%
    09:00 +31°C° 0 mm 1 mps 753 mmHg 64%
    10:00 +33°C° 0 mm 1 mps 753 mmHg 58%
    11:00 +34°C° 0.1 mm 1 mps 752 mmHg 58%
    12:00 +34°C° 0.1 mm 1 mps 751 mmHg 58%
    13:00 +35°C° 0.1 mm 1 mps 750 mmHg 58%
    14:00 +34°C° 0.9 mm 1 mps 749 mmHg 61%
    15:00 +34°C° 0.9 mm 1 mps 749 mmHg 65%
    16:00 +33°C° 0.9 mm 1 mps 749 mmHg 68%
    17:00 +32°C° 0.3 mm 1 mps 749 mmHg 72%
    18:00 +30°C° 0.3 mm 1 mps 750 mmHg 75%
    19:00 +29°C° 0.3 mm 2 mps 751 mmHg 79%
    20:00 +29°C° 0.2 mm 2 mps 751 mmHg 79%
    21:00 +28°C° 0.2 mm 2 mps 751 mmHg 80%
    22:00 +28°C° 0.2 mm 2 mps 752 mmHg 80%
    23:00 +28°C° 0 mm 2 mps 751 mmHg 80%

    21 December, Friday

    Time Temperature Precipitation Wind Pressure Humidity
    00:00 +27°C° 0 mm 2 mps 751 mmHg 80%
    01:00 +27°C° 0 mm 2 mps 750 mmHg 80%
    02:00 +27°C° 0 mm 2 mps 750 mmHg 80%
    03:00 +27°C° 0 mm 2 mps 750 mmHg 79%
    04:00 +26°C° 0 mm 2 mps 750 mmHg 79%
    05:00 +27°C° 0 mm 2 mps 751 mmHg 77%
    06:00 +27°C° 0 mm 2 mps 751 mmHg 75%
    07:00 +28°C° 0 mm 2 mps 752 mmHg 73%
    08:00 +30°C° 0 mm 2 mps 752 mmHg 66%
    09:00 +32°C° 0 mm 2 mps 752 mmHg 60%
    10:00 +34°C° 0 mm 2 mps 752 mmHg 53%
    11:00 +35°C° 0.1 mm 2 mps 751 mmHg 53%
    12:00 +35°C° 0.1 mm 2 mps 750 mmHg 52%
    13:00 +35°C° 0.1 mm 1 mps 749 mmHg 52%
    14:00 +35°C° 0.3 mm 1 mps 749 mmHg 54%
    15:00 +34°C° 0.3 mm 1 mps 748 mmHg 56%
    16:00 +34°C° 0.3 mm 1 mps 748 mmHg 58%
    17:00 +32°C° 0.2 mm 1 mps 749 mmHg 62%
    18:00 +31°C° 0.2 mm 1 mps 749 mmHg 67%
    19:00 +29°C° 0.2 mm 1 mps 750 mmHg 71%
    20:00 +29°C° 0 mm 2 mps 750 mmHg 72%
    21:00 +28°C° 0 mm 2 mps 751 mmHg 72%
    22:00 +28°C° 0 mm 2 mps 751 mmHg 72%
    23:00 +28°C° 0 mm 2 mps 751 mmHg 71%

    22 December, Saturday

    Time Temperature Precipitation Wind Pressure Humidity
    00:00 +27°C° 0 mm 2 mps 751 mmHg 70%
    01:00 +27°C° 0 mm 2 mps 750 mmHg 69%
    02:00 +27°C° 0 mm 2 mps 750 mmHg 69%
    03:00 +27°C° 0 mm 2 mps 750 mmHg 68%
    04:00 +26°C° 0 mm 2 mps 750 mmHg 68%
    05:00 +27°C° 0 mm 2 mps 751 mmHg 67%
    06:00 +27°C° 0 mm 2 mps 752 mmHg 67%
    07:00 +27°C° 0 mm 2 mps 752 mmHg 67%
    08:00 +29°C° 0 mm 2 mps 752 mmHg 61%
    09:00 +31°C° 0 mm 2 mps 752 mmHg 56%
    10:00 +34°C° 0 mm 2 mps 752 mmHg 50%
    11:00 +34°C° 0 mm 2 mps 751 mmHg 48%
    12:00 +35°C° 0 mm 2 mps 750 mmHg 46%
    13:00 +36°C° 0 mm 2 mps 749 mmHg 44%
    14:00 +35°C° 0 mm 2 mps 749 mmHg 47%
    15:00 +34°C° 0 mm 1 mps 749 mmHg 49%
    16:00 +34°C° 0 mm 1 mps 748 mmHg 52%
    17:00 +32°C° 0 mm 1 mps 749 mmHg 57%
    18:00 +30°C° 0 mm 1 mps 750 mmHg 62%
    19:00 +29°C° 0 mm 1 mps 750 mmHg 67%
    20:00 +28°C° 0 mm 1 mps 751 mmHg 68%
    21:00 +28°C° 0 mm 1 mps 751 mmHg 69%
    22:00 +28°C° 0 mm 1 mps 752 mmHg 69%
    23:00 +27°C° 0 mm 1 mps 751 mmHg 70%

    23 December, Sunday

    Time Temperature Precipitation Wind Pressure Humidity
    00:00 +27°C° 0 mm 1 mps 751 mmHg 70%
    01:00 +27°C° 0 mm 2 mps 751 mmHg 71%
    02:00 +26°C° 0 mm 2 mps 751 mmHg 70%
    03:00 +26°C° 0 mm 2 mps 751 mmHg 70%
    04:00 +26°C° 0 mm 2 mps 751 mmHg 70%
    05:00 +27°C° 0 mm 2 mps 751 mmHg 69%
    06:00 +27°C° 0 mm 2 mps 752 mmHg 67%
    07:00 +28°C° 0 mm 2 mps 753 mmHg 65%
    08:00 +30°C° 0 mm 2 mps 752 mmHg 59%
    09:00 +32°C° 0 mm 2 mps 752 mmHg 53%
    10:00 +35°C° 0 mm 2 mps 752 mmHg 47%
    11:00 +35°C° 0 mm 2 mps 751 mmHg 47%
    12:00 +36°C° 0 mm 2 mps 750 mmHg 46%
    13:00 +36°C° 0 mm 2 mps 749 mmHg 46%
    14:00 +36°C° 0.4 mm 2 mps 749 mmHg 48%
    15:00 +36°C° 0.4 mm 2 mps 749 mmHg 51%
    16:00 +34°C° 0.4 mm 1 mps 748 mmHg 54%
    17:00 +33°C° 0.1 mm 1 mps 749 mmHg 59%
    18:00 +31°C° 0.1 mm 1 mps 750 mmHg 63%
    19:00 +29°C° 0.1 mm 1 mps 750 mmHg 68%
    20:00 +29°C° 0 mm 1 mps 751 mmHg 69%
    21:00 +28°C° 0 mm 1 mps 751 mmHg 69%
    22:00 +28°C° 0 mm 1 mps 751 mmHg 70%
    23:00 +28°C° 0 mm 1 mps 751 mmHg 70%
    Show more